haerbin , China , ASIA

  • Monday
    March 27

    Cloudy  Cloudy

    48 °F  27 °F

    North  North

    3~4L    

  • Tuesday
    March 28

    Cloudy  Cloudy

    52 °F  32 °F

    West  Southwest

    3~4L   3~4L 

  • Wednesday
    March 29

    Shower  Sleet

    50 °F  32 °F

    West  Northwest

    3~4L    

  • Thursday
    March 30

    Shower  Cloudy

    46 °F  27 °F

    Northwest  West

    3~4L    

  • Friday
    March 31

    Cloudy  Sunny

    50 °F  28 °F

    Southwest  Southwest

    3~4L    

  • Saturday
    April 1

    Sunny  Sunny

    52 °F  30 °F

    Southwest  Southwest

    3~4L    

  • Sunday
    April 2

    Sunny  Sunny

    54 °F  28 °F

    Southwest  Southwest

    3~4L    

Date   Weather Temperature Humidity Total_rain Visibility Wind
11:00 Cloudy 43°F 57.4% 0mm 12km Northwest  2.8m/s
14:00 Cloudy 48°F 58.9% 0mm 12km Northwest  2.9m/s
17:00 Cloudy 45°F 66.5% 0mm 12km Northwest  2.4m/s
20:00 Cloudy 37°F 77.4% 0mm 12km Southwest  2.0m/s
23:00 Cloudy 30°F 85.8% 0mm 12km Southwest  1.9m/s
02:00 Cloudy 27°F 89% 0mm 12km Southwest  1.4m/s
05:00 Cloudy 27°F 88.6% 0mm 12km Southwest  1.4m/s
08:00 Cloudy 36°F 77.1% 0mm 12km Southwest  2.5m/s
11:00 Cloudy 48°F 45.4% 0mm 12km Southwest  3.9m/s
14:00 Cloudy 51°F 52.8% 0mm 12km Southwest  4.1m/s
17:00 Cloudy 50°F 57.2% 0mm 12km Southwest  3.2m/s
20:00 Cloudy 43°F 68.1% 0mm 12km Southwest  2.5m/s
23:00 Cloudy 41°F 73.9% 0mm 12km Southwest  1.5m/s
02:00 Cloudy 32°F 75.3% 0mm 12km Southwest  1.4m/s
05:00 Cloudy 33°F 78.4% 0mm 12km Southwest  1.1m/s
08:00 Cloudy 34°F 73.8% 0mm 8km Southwest  2.5m/s
11:00 Shower 45°F 71.2% 2.3mm 8km Southwest  3.4m/s
14:00 Shower 50°F 73.7% 2.3mm 8km Northwest  4.7m/s
17:00 Shower 48°F 76.2% 2.3mm 12km Northeast  3.7m/s
20:00 Shower 41°F 80.7% 2.3mm 12km Northwest  2.7m/s
23:00 Sleet 32°F 81.1% 0.2mm 12km Northwest  2.8m/s
02:00 Sleet 32°F 81.8% 0.1mm 12km Northwest  2.8m/s
05:00 Sleet 32°F 83.7% 0.1mm 8km Northwest  2.0m/s
08:00 Sleet 32°F 71.6% 0.1mm 12km Northwest  3.6m/s
11:00 Shower 45°F 64.1% 0.3mm 12km Northwest  4.5m/s
14:00 Shower 46°F 65.4% 0.3mm 12km Northwest  4.3m/s
17:00 Shower 44°F 67% 0.1mm 12km Northwest  2.6m/s
20:00 Cloudy 39°F 81.1% 0mm 12km Northwest  2.4m/s
23:00 Cloudy 32°F 88.3% 0mm 12km Northwest  1.7m/s
02:00 Cloudy 29°F 87.8% 0mm 12km Northwest  2.0m/s
05:00 Cloudy 27°F 87.6% 0mm 12km Northwest  2.2m/s
08:00 Cloudy 35°F 76.8% 0mm 12km Northwest  1.6m/s
11:00 Cloudy 39°F 46.7% 0mm 12km Northwest  3.9m/s
14:00 Cloudy 50°F 60.3% 0mm 12km Northwest  4.2m/s
17:00 Cloudy 48°F 61.3% 0mm 12km Northwest  2.7m/s
20:00 Cloudy 35°F 62.1% 0mm 12km Northwest  1.3m/s
23:00 Sunny 33°F 62.9% 0mm 12km Southwest  1.9m/s
02:00 Sunny 29°F 76.3% 0mm 8km Southwest  1.5m/s
05:00 Sunny 29°F 63.3% 0mm 12km Southwest  1.0m/s
08:00 Sunny 43°F 51.9% 0mm 12km Southwest  2.1m/s
11:00 Sunny 51°F 49% 0mm 12km Southwest  5.0m/s
14:00 Sunny 51°F 50.9% 0mm 12km Northwest  4.9m/s
17:00 Sunny 49°F 52.8% 0mm 12km Southwest  3.2m/s
20:00 Sunny 40°F 58.6% 0mm 12km Southeast  1.6m/s
23:00 Sunny 34°F 62.9% 0mm 12km Southwest  3.3m/s
02:00 Sunny 31°F 78.4% 0mm 12km Southeast  2.8m/s
05:00 Sunny 31°F 67.2% 0mm 12km Southwest  3.1m/s
08:00 Sunny 42°F 54.5% 0mm 12km Southeast  2.8m/s
11:00 Sunny 49°F 47.1% 0mm 12km Southwest  5.4m/s
14:00 Sunny 53°F 50.1% 0mm 12km Southwest  4.3m/s
17:00 Sunny 47°F 53% 0mm 12km Southwest  2.8m/s
20:00 Sunny 42°F 55.9% 0mm 12km Northwest  2.2m/s
23:00 Sunny 32°F 58.8% 0mm 12km Southwest  0.9m/s
02:00 Sunny 30°F 68.7% 0mm 12km Southwest  2.4m/s
05:00 Sunny 29°F 77.5% 0mm 12km Southwest  3.2m/s